1489644000.27,23809,8.56,73188.8,-11.03,-21.09,-27.51,0,*68
1489644001.54,23810,8.5,73178.8,-11.03,-21.23,-27.51,0,*68
1489644002.81,23811,8.5,73176.0,-11.03,-21.17,-27.39,0,*60
1489644004.1,23812,8.5,73170.8,-11.03,-21.03,-27.35,0,*6A
1489644005.37,23813,8.56,73160.8,-11.01,-20.99,-27.19,0,*65
1489644006.63,23814,8.56,73152.3,-11.03,-20.93,-27.19,0,*6A
1489644007.9,23815,8.56,73142.3,-11.03,-20.93,-27.23,0,*62
1489644009.16,23816,8.56,73142.5,-11.03,-21.17,-27.39,0,*67
1489644010.4,23817,8.56,73134.3,-11.01,-21.03,-27.13,0,*69
1489644011.67,23818,8.56,73158.0,-11.01,-21.03,-27.35,0,*62
1489644012.94,23819,8.56,73210.8,-11.03,-21.23,-27.51,0,*61
1489644014.21,23820,8.5,73228.5,-11.01,-21.33,-27.61,0,*6B
1489644015.48,23821,8.56,73234.5,-11.03,-21.67,-27.89,0,*6F
1489644016.75,23822,8.56,73214.8,-11.03,-22.27,-28.21,0,*66
1489644018.04,23823,8.56,73166.0,-11.03,-21.97,-28.25,0,*6B
1489644019.31,23824,8.56,73174.3,-11.03,-22.11,-28.25,0,*61
1489644020.6,23825,8.5,73188.8,-11.03,-21.83,-28.09,0,*66
1489644021.87,23826,8.56,73162.8,-11.03,-22.11,-28.43,0,*63
1489644023.13,23827,8.56,73142.8,-11.03,-22.53,-28.75,0,*61
1489644024.38,23828,8.56,73144.3,-11.05,-22.31,-28.53,0,*68
1489644025.62,23829,8.56,73146.0,-11.05,-21.77,-27.99,0,*61
1489644026.86,23830,8.56,73160.5,-11.09,-21.73,-27.93,0,*6B
1489644028.09,23831,8.56,73158.5,-11.09,-21.73,-27.93,0,*6A
1489644029.34,23832,8.56,73170.3,-11.05,-21.67,-27.89,0,*6B
1489644030.6,23833,8.56,73168.5,-11.09,-21.73,-27.83,0,*69
1489644031.87,23834,8.56,73154.0,-11.05,-21.87,-28.09,0,*64
1489644033.11,23835,8.56,73144.3,-11.09,-22.57,-28.85,0,*63
1489644034.39,23836,8.56,73144.0,-11.09,-22.21,-28.47,0,*6F
1489644035.63,23837,8.56,73152.5,-11.05,-21.83,-27.93,0,*6F
1489644036.89,23838,8.56,73164.3,-11.09,-21.73,-27.83,0,*62
1489644038.13,23839,8.56,73182.0,-11.09,-21.73,-27.93,0,*62
1489644039.39,23840,8.56,73170.5,-11.09,-22.37,-28.59,0,*66
1489644040.63,23841,8.56,73168.0,-11.11,-22.37,-28.59,0,*6E
1489644041.87,23842,8.56,73140.3,-11.11,-22.37,-28.47,0,*62
1489644043.11,23843,8.56,73156.0,-11.11,-22.21,-28.31,0,*65
1489644044.35,23844,8.56,73138.5,-11.11,-22.37,-28.63,0,*62
1489644045.6,23845,8.56,73074.0,-11.13,-22.57,-28.69,0,*6D
1489644046.86,23846,8.56,73136.3,-11.13,-22.41,-28.63,0,*63
1489644048.13,23847,8.56,73130.0,-11.11,-23.85,-29.35,0,*6B
1489644049.38,23848,8.56,73130.0,-11.13,-24.47,-29.57,0,*6B
1489644050.62,23849,8.56,73108.5,-11.13,-24.61,-29.83,0,*67
1489644051.89,23850,8.56,73142.8,-11.17,-24.05,-29.39,0,*68
1489644053.14,23851,8.56,73148.0,-11.17,-23.75,-28.85,0,*6F
1489644054.37,23852,8.56,73148.5,-11.15,-23.69,-28.85,0,*63
1489644055.63,23853,8.56,73144.3,-11.15,-23.69,-28.91,0,*67
1489644056.87,23854,8.56,73138.3,-11.15,-23.65,-28.85,0,*69
1489644058.13,23855,8.56,73136.0,-11.15,-23.85,-29.17,0,*6C
1489644059.36,23856,8.56,73134.0,-11.17,-23.89,-29.23,0,*66
1489644060.62,23857,8.56,73144.3,-11.19,-23.95,-29.29,0,*6E
1489644061.86,23858,8.56,73144.8,-11.19,-23.79,-29.13,0,*6A
1489644063.1,23859,8.56,73138.3,-11.19,-23.79,-29.01,0,*68
1489644064.39,23860,8.56,73144.5,-11.21,-23.85,-29.17,0,*6D
1489644065.66,23861,8.56,73168.0,-11.19,-23.95,-29.35,0,*66
1489644066.9,23862,8.56,73164.3,-11.21,-24.57,-29.83,0,*6A
1489644068.13,23863,8.56,73152.5,-11.23,-24.47,-29.95,0,*6F
1489644069.37,23864,8.56,73164.5,-11.23,-24.57,-30.01,0,*6C
1489644070.59,23865,8.56,73168.5,-11.23,-24.57,-29.95,0,*68
1489644071.86,23866,8.56,73164.0,-11.25,-24.61,-30.05,0,*69
1489644073.06,23867,8.56,73164.8,-11.23,-24.93,-30.23,0,*67
1489644074.35,23868,8.56,73164.8,-11.25,-25.03,-30.39,0,*6D
1489644075.63,23869,8.56,73174.3,-11.27,-25.29,-30.73,0,*68
1489644076.87,23870,8.56,73150.5,-11.27,-25.19,-30.73,0,*63
1489644078.15,23871,8.56,73140.3,-11.33,-25.55,-30.83,0,*60
1489644079.42,23872,8.56,73116.3,-11.33,-25.71,-31.01,0,*6E
1489644080.67,23873,8.56,73114.0,-11.35,-25.13,-30.51,0,*69
1489644081.88,23874,8.56,73122.8,-11.35,-24.93,-30.33,0,*63
1489644083.13,23875,8.56,73130.0,-11.35,-24.71,-30.11,0,*6E
1489644084.35,23876,8.56,73142.8,-11.35,-24.77,-30.11,0,*6B
1489644085.59,23877,8.5,73152.3,-11.37,-24.57,-29.95,0,*6E
1489644086.86,23878,8.56,73128.0,-11.39,-24.67,-29.89,0,*61
1489644088.17,23879,8.56,73132.3,-11.37,-24.71,-30.05,0,*65
1489644089.41,23880,8.56,73132.8,-11.39,-24.77,-30.05,0,*6B
1489644090.62,23881,8.56,73114.5,-11.39,-24.93,-30.23,0,*64
1489644091.86,23882,8.56,73104.5,-11.39,-24.93,-30.05,0,*63
1489644093.14,23883,8.56,73142.8,-11.39,-24.83,-30.17,0,*60
1489644094.38,23884,8.56,73140.0,-11.39,-24.93,-30.17,0,*66
1489644095.61,23885,8.56,73158.3,-11.41,-24.93,-30.17,0,*68
1489644096.9,23886,8.56,73172.5,-11.43,-24.67,-29.89,0,*6D
1489644098.17,23887,8.56,73178.0,-11.41,-24.67,-29.89,0,*6E
1489644099.44,23888,8.56,73152.0,-11.43,-24.51,-29.73,0,*63
1489644100.7,23889,8.56,73146.0,-11.43,-24.67,-29.95,0,*6F
1489644102.0,23890,8.56,73188.3,-11.43,-24.71,-29.89,0,*6D
1489644103.29,23891,8.56,73188.3,-11.43,-24.41,-29.73,0,*6A
1489644104.56,23892,8.56,73184.3,-11.43,-24.25,-29.45,0,*6E
1489644105.8,23893,8.56,73196.3,-11.43,-24.35,-29.57,0,*6D
1489644107.04,23894,8.56,73208.8,-11.45,-24.41,-29.61,0,*6A
1489644108.31,23895,8.56,73224.8,-11.43,-24.41,-29.57,0,*68
1489644109.53,23896,8.56,73248.5,-11.45,-24.35,-29.57,0,*6E
1489644110.75,23897,8.56,73218.5,-11.45,-24.35,-29.57,0,*6F
1489644112.01,23898,8.5,73222.8,-11.43,-24.35,-29.39,0,*6E
1489644113.26,23899,8.56,73218.8,-11.47,-24.47,-29.61,0,*63
1489644114.53,23900,8.56,73194.0,-11.47,-24.41,-29.61,0,*64
1489644115.74,23901,8.56,73190.0,-11.45,-24.31,-29.61,0,*60
1489644116.99,23902,8.5,73150.8,-11.47,-24.31,-29.45,0,*67
1489644118.26,23903,8.56,73140.3,-11.47,-24.41,-29.67,0,*61
1489644119.52,23904,8.5,73148.0,-11.47,-24.11,-29.07,0,*65
1489644120.79,23905,8.56,73206.3,-11.47,-23.65,-27.77,0,*69
1489644122.08,23906,8.5,73222.3,-11.47,-23.33,-28.05,0,*63
1489644123.32,23907,8.56,73242.3,-11.45,-23.59,-28.91,0,*61
1489644124.62,23908,8.56,73250.5,-11.47,-24.25,-29.35,0,*6F
1489644125.9,23909,8.56,73220.3,-11.47,-24.31,-29.35,0,*6B
1489644127.17,23910,8.56,73218.5,-11.47,-24.71,-29.61,0,*66
1489644128.41,23911,8.56,73214.3,-11.47,-24.77,-29.61,0,*61
1489644129.65,23912,8.56,73216.8,-11.47,-24.77,-29.67,0,*64
1489644130.92,23913,8.56,73130.8,-11.47,-24.87,-29.61,0,*6C
1489644132.16,23914,8.56,73098.8,-11.47,-24.61,-29.45,0,*65
1489644133.43,23915,8.56,73156.3,-11.47,-24.57,-29.35,0,*66
1489644134.67,23916,8.56,73178.0,-11.49,-24.57,-29.35,0,*6B
1489644135.92,23917,8.5,73180.3,-11.49,-24.47,-29.35,0,*6B
1489644137.19,23918,8.56,73176.5,-11.49,-24.41,-29.35,0,*62
1489644138.43,23919,8.56,73180.3,-11.49,-24.57,-29.35,0,*64
1489644139.7,23920,8.5,73190.0,-11.49,-24.41,-29.35,0,*69
1489644140.95,23921,8.56,73198.3,-11.49,-24.41,-29.45,0,*6F
1489644142.16,23922,8.56,73208.8,-11.49,-24.57,-29.45,0,*6B
1489644143.4,23923,8.56,73210.8,-11.49,-24.61,-29.51,0,*6A
1489644144.67,23924,8.56,73206.8,-11.51,-24.67,-29.57,0,*64
1489644145.91,23925,8.56,73168.8,-11.51,-24.77,-29.57,0,*64
1489644147.12,23926,8.56,73134.0,-11.49,-24.57,-29.45,0,*6F
1489644148.35,23927,8.56,73120.0,-11.49,-24.47,-29.45,0,*6F
1489644149.55,23928,8.56,73190.3,-11.49,-24.61,-29.23,0,*64
1489644150.84,23929,8.5,73238.5,-11.51,-24.21,-29.17,0,*6F
1489644152.08,23930,8.56,73188.5,-11.49,-24.11,-29.07,0,*6C
1489644153.36,23931,8.56,73180.8,-11.51,-24.21,-29.29,0,*6B
1489644154.65,23932,8.56,73158.0,-11.51,-24.21,-29.13,0,*61
1489644155.91,23933,8.56,73170.8,-11.51,-24.31,-29.17,0,*65
1489644157.14,23934,8.56,73170.0,-11.49,-24.15,-29.07,0,*6C
1489644158.4,23935,8.5,73156.5,-11.49,-24.15,-28.79,0,*65
1489644159.67,23936,8.5,73162.0,-11.51,-24.21,-28.97,0,*68
1489644160.93,23937,8.56,73168.0,-11.49,-24.11,-28.91,0,*65
1489644162.16,23938,8.5,73160.0,-11.49,-24.15,-28.97,0,*68
1489644163.43,23939,8.56,73162.8,-11.49,-24.15,-28.91,0,*6F
1489644164.69,23940,8.5,73164.5,-11.49,-24.11,-28.79,0,*63
1489644165.92,23941,8.56,73182.8,-11.51,-24.05,-28.97,0,*6E
1489644167.18,23942,8.56,73200.3,-11.49,-23.99,-28.75,0,*6A
1489644168.45,23943,8.56,73192.5,-11.47,-23.89,-28.63,0,*63
1489644169.69,23944,8.56,73192.8,-11.45,-23.75,-28.47,0,*63
1489644170.93,23945,8.56,73188.3,-11.45,-23.59,-28.43,0,*68
1489644172.15,23946,8.56,73192.5,-11.45,-23.59,-28.37,0,*68
1489644173.38,23947,8.56,73198.8,-11.45,-23.69,-28.53,0,*68
1489644174.62,23948,8.5,73134.3,-11.45,-23.89,-28.59,0,*63
1489644175.86,23949,8.56,73154.0,-11.45,-23.85,-28.53,0,*64
1489644177.07,23950,8.56,73168.3,-11.45,-23.89,-28.53,0,*60
1489644178.33,23951,8.56,73204.8,-11.45,-23.85,-28.43,0,*6C
1489644179.54,23952,8.56,73198.3,-11.45,-23.89,-28.69,0,*6B
1489644180.83,23953,8.56,73168.0,-11.43,-23.85,-28.43,0,*68
1489644182.11,23954,8.5,73220.0,-11.43,-23.69,-28.25,0,*6D
1489644183.35,23955,8.56,73184.5,-11.43,-23.59,-28.37,0,*6C
1489644184.58,23956,8.5,73174.8,-11.41,-23.69,-28.37,0,*6E
1489644185.84,23957,8.56,73170.3,-11.43,-23.75,-28.43,0,*63
1489644187.11,23958,8.56,73182.8,-11.41,-23.49,-28.21,0,*65
1489644188.34,23959,8.56,73166.3,-11.41,-23.69,-28.37,0,*61
1489644189.59,23960,8.5,73152.0,-11.41,-23.85,-28.47,0,*6E
1489644190.87,23961,8.56,73154.8,-11.43,-23.69,-28.43,0,*6B
1489644192.11,23962,8.56,73174.8,-11.41,-23.65,-28.31,0,*63
1489644193.36,23963,8.56,73162.8,-11.39,-23.65,-28.31,0,*6D
1489644194.59,23964,8.56,73164.3,-11.39,-23.43,-28.15,0,*68
1489644195.87,23965,8.56,73166.3,-11.37,-23.49,-28.15,0,*6D
1489644197.11,23966,8.56,73168.8,-11.39,-23.69,-28.31,0,*64
1489644198.41,23967,8.56,73168.0,-11.37,-23.49,-28.21,0,*68
1489644199.66,23968,8.56,73120.5,-11.39,-23.53,-28.15,0,*65
1489644200.94,23969,8.56,73148.0,-11.37,-23.59,-28.25,0,*63
1489644202.2,23970,8.56,73142.0,-11.37,-23.29,-27.89,0,*65
1489644203.45,23971,8.56,73176.5,-11.37,-22.97,-27.71,0,*67
1489644204.69,23972,8.56,73174.5,-11.37,-22.87,-27.77,0,*63
1489644205.93,23973,8.5,73184.0,-11.35,-23.09,-27.83,0,*6C
1489644207.18,23974,8.56,73184.5,-11.35,-23.33,-28.15,0,*62
1489644208.43,23975,8.56,73182.0,-11.35,-23.43,-28.25,0,*67
1489644209.71,23976,8.56,73172.0,-11.33,-23.53,-28.31,0,*66
1489644210.98,23977,8.56,73168.5,-11.33,-23.43,-28.25,0,*63
1489644212.24,23978,8.56,73174.8,-11.33,-23.39,-28.25,0,*61
1489644213.49,23979,8.56,73172.8,-11.35,-23.49,-28.31,0,*64
1489644214.72,23980,8.56,73168.0,-11.35,-23.43,-28.31,0,*68
1489644215.98,23981,8.56,73164.5,-11.33,-23.39,-28.25,0,*67
1489644217.24,23982,8.56,73152.8,-11.33,-23.39,-28.25,0,*64
1489644218.49,23983,8.56,73150.5,-11.33,-23.59,-28.37,0,*60
1489644219.78,23984,8.56,73156.8,-11.33,-24.41,-28.59,0,*61
1489644221.08,23985,8.56,73166.5,-11.33,-24.41,-28.43,0,*6B
1489644222.38,23986,8.56,73170.0,-11.33,-24.11,-28.25,0,*6D
1489644223.62,23987,8.56,73160.0,-11.33,-24.35,-28.37,0,*69
1489644224.84,23988,8.56,73180.0,-11.31,-24.35,-28.53,0,*66
1489644226.11,23989,8.56,73178.3,-11.31,-24.41,-28.43,0,*65
1489644227.38,23990,8.56,73168.5,-11.33,-24.41,-28.53,0,*6E
1489644228.67,23991,8.56,73176.5,-11.33,-24.67,-28.75,0,*6F
1489644229.94,23992,8.56,73184.0,-11.33,-24.83,-28.85,0,*69
1489644231.22,23993,8.56,73196.5,-11.33,-24.71,-28.85,0,*65
1489644232.51,23994,8.56,73182.3,-11.33,-24.83,-28.91,0,*6A
1489644233.74,23995,8.56,73192.8,-11.33,-24.93,-29.07,0,*64
1489644235.02,23996,8.56,73186.8,-11.33,-24.87,-29.13,0,*67
1489644236.25,23997,8.56,73196.3,-11.35,-25.09,-29.13,0,*67
1489644237.54,23998,8.56,73202.5,-11.33,-25.03,-29.29,0,*6D
1489644238.77,23999,8.56,73184.0,-11.35,-25.13,-29.29,0,*6B
1489644240.03,24000,8.56,73118.8,-11.35,-25.29,-29.29,0,*6C
1489644241.28,24001,8.5,73128.0,-11.33,-25.35,-29.39,0,*67
1489644242.51,24002,8.56,73184.5,-11.35,-25.23,-29.29,0,*64
1489644243.77,24003,8.56,73176.0,-11.33,-25.03,-29.07,0,*6D
1489644245.01,24004,8.56,73192.8,-11.37,-25.09,-29.07,0,*64
1489644246.26,24005,8.56,73204.0,-11.37,-24.93,-29.13,0,*62
1489644247.51,24006,8.56,73202.8,-11.37,-24.93,-29.13,0,*61
1489644248.74,24007,8.5,73196.0,-11.37,-24.93,-28.97,0,*6D
1489644249.98,24008,8.56,73158.8,-11.37,-25.39,-29.45,0,*6D
1489644251.26,24009,8.5,73142.0,-11.37,-25.87,-30.01,0,*61
1489644252.5,24010,8.56,73138.3,-11.39,-25.65,-29.73,0,*66
1489644253.77,24011,8.56,73130.0,-11.39,-25.29,-29.35,0,*6D
1489644255.03,24012,8.56,73138.3,-11.37,-25.23,-29.29,0,*67
1489644256.27,24013,8.56,73152.0,-11.39,-25.49,-29.39,0,*65
1489644257.51,24014,8.5,73164.0,-11.39,-25.65,-29.73,0,*62
1489644258.78,24015,8.56,73168.0,-11.39,-25.29,-29.35,0,*69
1489644260.05,24016,8.5,73170.5,-11.39,-25.29,-29.35,0,*6A
1489644261.32,24017,8.56,73152.3,-11.39,-25.03,-29.17,0,*63
1489644262.58,24018,8.56,73158.8,-11.39,-25.03,-29.17,0,*6C
1489644263.8,24019,8.56,73162.5,-11.41,-24.77,-28.85,0,*6A
1489644265.1,24020,8.56,73152.0,-11.37,-24.71,-28.75,0,*68
1489644266.37,24021,8.56,73194.3,-11.37,-24.61,-28.59,0,*66
1489644267.6,24022,8.56,73192.8,-11.39,-24.47,-28.53,0,*65
1489644268.82,24023,8.56,73184.0,-11.39,-24.51,-28.69,0,*6A
1489644270.1,24024,8.56,73198.5,-11.37,-24.47,-28.43,0,*6C
1489644271.35,24025,8.5,73170.0,-11.37,-24.31,-28.31,0,*69
1489644272.65,24026,8.56,73158.3,-11.37,-24.41,-28.43,0,*68
1489644273.91,24027,8.56,73160.0,-11.37,-24.31,-28.31,0,*6B
1489644275.19,24028,8.56,73170.8,-11.37,-24.25,-28.31,0,*61
1489644276.46,24029,8.56,73180.3,-11.35,-24.41,-28.43,0,*65
1489644277.71,24030,8.56,73190.5,-11.35,-24.57,-28.59,0,*61
1489644278.95,24031,8.56,73162.8,-11.33,-24.51,-28.53,0,*6A
1489644280.22,24032,8.56,73156.0,-11.33,-24.83,-28.69,0,*6F
1489644281.5,24033,8.56,73148.3,-11.33,-24.71,-28.69,0,*63
1489644282.79,24034,8.5,73122.0,-11.33,-24.83,-28.75,0,*64
1489644284.05,24035,8.56,73122.5,-11.33,-24.87,-28.85,0,*6E
1489644285.35,24036,8.56,73118.5,-11.33,-24.83,-28.59,0,*68
1489644286.6,24037,8.56,73124.8,-11.31,-24.41,-28.37,0,*6D
1489644287.85,24038,8.56,73136.0,-11.31,-24.35,-28.25,0,*62
1489644289.12,24039,8.56,73162.8,-11.31,-24.11,-28.09,0,*6B
1489644290.37,24040,8.56,73116.0,-11.31,-24.05,-28.05,0,*6C
1489644291.64,24041,8.56,73110.8,-11.31,-24.21,-28.09,0,*67
1489644292.86,24042,8.56,73136.3,-11.27,-23.89,-27.93,0,*6A
1489644294.15,24043,8.56,73140.0,-11.25,-23.85,-27.83,0,*64
1489644295.42,24044,8.56,73118.8,-11.27,-23.85,-27.83,0,*61
1489644296.66,24045,8.56,73154.5,-11.25,-23.75,-27.51,0,*62
1489644297.92,24046,8.56,73130.0,-11.25,-23.33,-27.13,0,*65
1489644299.19,24047,8.56,73144.8,-11.25,-23.65,-27.67,0,*64
1489644300.48,24048,8.56,73144.5,-11.25,-23.69,-27.61,0,*61
1489644301.72,24049,8.56,73146.3,-11.23,-23.69,-27.89,0,*60
1489644302.98,24050,8.56,73150.3,-11.25,-23.85,-27.93,0,*67
1489644304.21,24051,8.56,73146.0,-11.23,-23.69,-27.77,0,*68
1489644305.46,24052,8.56,73146.5,-11.21,-23.79,-27.89,0,*69
1489644306.7,24053,8.56,73150.8,-11.19,-23.85,-27.77,0,*61
1489644307.94,24054,8.56,73142.3,-11.19,-23.85,-27.77,0,*66
1489644309.18,24055,8.56,73144.8,-11.21,-23.79,-27.89,0,*6E
1489644310.42,24056,8.56,73152.5,-11.19,-23.95,-27.93,0,*6F
1489644311.69,24057,8.56,73156.3,-11.19,-23.99,-27.99,0,*68
1489644312.96,24058,8.56,73164.5,-11.19,-24.11,-28.09,0,*66
1489644314.23,24059,8.56,73176.3,-11.19,-23.99,-27.99,0,*66
1489644315.5,24060,8.56,73152.8,-11.17,-23.95,-27.89,0,*6F
1489644316.74,24061,8.56,73160.3,-11.15,-23.95,-27.89,0,*6C
1489644317.98,24062,8.56,73156.3,-11.15,-24.05,-27.99,0,*60
1489644319.28,24063,8.56,73152.0,-11.17,-24.21,-28.21,0,*69
1489644320.55,24064,8.56,73138.5,-11.15,-24.15,-28.21,0,*6B
1489644321.82,24065,8.56,73150.8,-11.15,-24.15,-28.05,0,*6C
1489644323.04,24066,8.56,73162.0,-11.15,-24.05,-28.15,0,*6F
1489644324.28,24067,8.56,73170.0,-11.15,-24.05,-28.05,0,*6F
1489644325.53,24068,8.56,73162.5,-11.15,-24.05,-28.05,0,*60
1489644326.8,24069,8.56,73176.5,-11.13,-24.05,-28.05,0,*67
1489644328.04,24070,8.56,73182.5,-11.13,-23.89,-27.89,0,*67
1489644329.34,24071,8.56,73168.8,-11.13,-23.99,-27.99,0,*66
1489644330.6,24072,8.56,73168.0,-11.11,-23.85,-27.83,0,*61
1489644331.86,24073,8.56,73170.8,-11.11,-23.85,-27.83,0,*60
1489644333.1,24074,8.56,73166.8,-11.11,-23.85,-27.77,0,*6C
1489644334.39,24075,8.56,73164.3,-11.13,-24.15,-27.99,0,*61
1489644335.65,24076,8.56,73174.5,-11.11,-23.99,-27.83,0,*68
1489644336.92,24077,8.56,73184.5,-11.11,-23.85,-27.83,0,*64
1489644338.17,24078,8.56,73190.3,-11.09,-23.95,-27.93,0,*62
1489644339.39,24079,8.56,73188.8,-11.05,-23.89,-27.89,0,*69
1489644340.62,24080,8.56,73196.3,-11.05,-23.79,-27.67,0,*60
1489644341.86,24081,8.56,73200.8,-11.05,-23.65,-27.55,0,*6D
1489644343.08,24082,8.56,73196.3,-11.05,-23.75,-27.71,0,*69
1489644344.3,24083,8.56,73210.5,-11.05,-23.89,-27.89,0,*6C
1489644345.54,24084,8.56,73216.3,-11.03,-23.89,-27.77,0,*6C
1489644346.78,24085,8.56,73228.5,-11.03,-23.89,-27.77,0,*6D
1489644348.02,24086,8.56,73200.3,-11.01,-23.89,-27.83,0,*67
1489644349.26,24087,8.56,73202.8,-11.01,-23.89,-27.83,0,*66
1489644350.53,24088,8.56,73192.3,-11.03,-24.11,-27.93,0,*6C
1489644351.75,24089,8.56,73198.0,-11.01,-24.05,-27.89,0,*61
1489644353.01,24090,8.56,73194.3,-11.01,-23.99,-27.99,0,*6A
1489644354.26,24091,8.56,73214.0,-11.03,-24.05,-27.93,0,*61
1489644355.47,24092,8.56,73210.8,-11.01,-23.89,-27.89,0,*68
1489644356.72,24093,8.56,73202.3,-11.01,-23.99,-27.89,0,*68
1489644357.94,24094,8.56,73204.3,-11.01,-24.05,-27.89,0,*6D
1489644359.2,24095,8.56,73208.3,-10.99,-23.89,-27.83,0,*65
1489644360.47,24096,8.56,73198.3,-10.99,-24.05,-27.83,0,*65
1489644361.7,24097,8.56,73182.5,-10.99,-23.89,-27.71,0,*6A
1489644362.97,24098,8.56,73202.5,-10.99,-23.89,-27.83,0,*68
1489644364.26,24099,8.56,73192.8,-10.99,-23.99,-27.83,0,*68
1489644365.52,24100,8.56,73194.3,-10.99,-23.89,-27.83,0,*68
1489644366.81,24101,8.56,73234.8,-10.99,-24.15,-27.99,0,*60
1489644368.06,24102,8.56,73192.5,-10.99,-24.05,-27.89,0,*63
1489644369.32,24103,8.56,73192.3,-10.99,-23.99,-27.89,0,*60
1489644370.59,24104,8.56,73194.0,-10.95,-23.95,-27.77,0,*66
1489644371.86,24105,8.56,73180.5,-10.95,-23.95,-27.67,0,*66
1489644373.15,24106,8.56,73206.3,-10.95,-23.95,-27.83,0,*6F
1489644374.44,24107,8.56,73212.8,-10.95,-23.99,-27.83,0,*62
1489644375.71,24108,8.56,73216.5,-10.95,-23.85,-27.77,0,*6B
1489644376.98,24109,8.56,73224.5,-10.95,-23.85,-27.67,0,*6B
1489644378.26,24110,8.56,73228.8,-10.95,-23.69,-27.61,0,*67
1489644379.5,24111,8.56,73232.8,-10.93,-23.65,-27.55,0,*6B
1489644380.76,24112,8.56,73232.8,-10.93,-23.65,-27.61,0,*6F
1489644382.03,24113,8.56,73228.5,-10.95,-23.85,-27.77,0,*61
1489644383.24,24114,8.56,73216.3,-10.93,-23.79,-27.71,0,*65
1489644384.45,24115,8.56,73216.8,-10.93,-23.89,-27.71,0,*6B
1489644385.66,24116,8.56,73224.5,-10.93,-23.89,-27.71,0,*68
1489644386.88,24117,8.56,73226.5,-10.93,-23.79,-27.71,0,*66
1489644388.12,24118,8.56,73222.5,-10.91,-23.79,-27.71,0,*6B
1489644389.36,24119,8.56,73206.3,-10.91,-23.79,-27.71,0,*6A
1489644390.61,24120,8.56,73212.3,-10.91,-23.79,-27.71,0,*60
1489644391.85,24121,8.56,73220.8,-10.89,-23.85,-27.67,0,*6C
1489644393.12,24122,8.56,73212.5,-10.91,-23.95,-27.67,0,*67
1489644394.36,24123,8.56,73220.5,-10.91,-23.89,-27.71,0,*6C
1489644395.58,24124,8.56,73236.0,-10.89,-23.89,-27.71,0,*62
1489644396.84,24125,8.56,73220.3,-10.89,-23.99,-27.83,0,*6F
1489644398.06,24126,8.56,73238.3,-10.89,-23.89,-27.67,0,*67
1489644399.28,24127,8.56,73240.8,-10.89,-23.75,-27.55,0,*64
1489644400.52,24128,8.56,73244.5,-10.89,-23.85,-27.71,0,*62
1489644401.79,24129,8.56,73232.8,-10.87,-23.99,-27.71,0,*60
1489644403.08,24130,8.56,73254.5,-10.87,-23.99,-27.83,0,*65
1489644404.35,24131,8.56,73246.3,-10.87,-23.99,-27.71,0,*69
1489644405.62,24132,8.56,73246.0,-10.83,-23.95,-27.67,0,*65
1489644406.91,24133,8.56,73240.5,-10.87,-23.99,-27.83,0,*66
1489644408.18,24134,8.56,73224.0,-10.83,-23.79,-27.61,0,*67
1489644409.42,24135,8.56,73224.5,-10.83,-23.79,-27.77,0,*61
1489644410.66,24136,8.56,73212.8,-10.81,-23.95,-27.77,0,*62
1489644411.9,24137,8.56,73216.3,-10.81,-23.95,-27.77,0,*63
1489644413.15,24138,8.56,73192.8,-10.83,-23.79,-27.67,0,*6D
1489644414.42,24139,8.56,73216.8,-10.83,-23.85,-27.67,0,*6F
1489644415.69,24140,8.56,73216.3,-10.79,-23.65,-27.55,0,*6B
1489644416.93,24141,8.56,73230.5,-10.81,-23.59,-27.45,0,*63
1489644418.16,24142,8.56,73224.0,-10.81,-23.69,-27.51,0,*66
1489644419.43,24143,8.56,73230.0,-10.79,-23.65,-27.55,0,*68
1489644420.71,24144,8.56,73226.8,-10.79,-23.65,-27.45,0,*6E
1489644421.98,24145,8.56,73222.8,-10.79,-23.59,-27.45,0,*60
1489644423.24,24146,8.56,73218.0,-10.79,-23.65,-27.55,0,*6D
1489644424.53,24147,8.56,73210.0,-10.79,-23.65,-27.45,0,*6D
1489644425.78,24148,8.56,73218.3,-10.75,-23.75,-27.51,0,*6A
1489644427.02,24149,8.56,73222.3,-10.75,-23.75,-27.51,0,*6B
1489644428.25,24150,8.56,73224.3,-10.77,-23.69,-27.55,0,*68
1489644429.52,24151,8.56,73226.5,-10.75,-23.59,-27.39,0,*62
1489644430.77,24152,8.56,73230.0,-10.75,-23.75,-27.51,0,*61
1489644431.98,24153,8.56,73224.8,-10.77,-23.75,-27.55,0,*66
1489644433.24,24154,8.56,73222.8,-10.75,-23.69,-27.55,0,*6E
1489644434.5,24155,8.56,73218.5,-10.75,-23.69,-27.55,0,*6F
1489644435.73,24156,8.56,73218.8,-10.73,-23.75,-27.55,0,*67
1489644436.95,24157,8.56,73208.5,-10.73,-23.75,-27.51,0,*62
1489644438.2,24158,8.56,73220.5,-10.73,-23.85,-27.67,0,*67
1489644439.42,24159,8.56,73222.5,-10.73,-23.89,-27.55,0,*6B
1489644440.64,24160,8.56,73226.3,-10.73,-23.75,-27.55,0,*62
1489644441.88,24161,8.56,73204.0,-10.71,-23.79,-27.51,0,*69
1489644443.12,24162,8.56,73204.5,-10.71,-23.79,-27.51,0,*6A
1489644444.41,24163,8.56,73180.3,-10.71,-23.85,-27.61,0,*6B
1489644445.7,24164,8.56,73188.0,-10.71,-23.85,-27.61,0,*6C
1489644446.95,24165,8.56,73194.3,-10.67,-23.89,-27.67,0,*60
1489644448.21,24166,8.56,73186.5,-10.69,-23.95,-27.83,0,*6A
1489644449.48,24167,8.56,73198.5,-10.69,-24.11,-27.83,0,*60
1489644450.75,24168,8.56,73172.0,-10.69,-24.11,-27.83,0,*6F
1489644451.99,24169,8.56,73208.8,-10.67,-24.05,-27.77,0,*6E
1489644453.24,24170,8.56,73222.0,-10.67,-24.05,-27.89,0,*67
1489644454.51,24171,8.56,73198.3,-10.67,-23.95,-27.71,0,*6F
1489644455.75,24172,8.56,73226.0,-10.69,-23.99,-27.67,0,*69
1489644457.02,24173,8.56,73212.8,-10.67,-23.95,-27.77,0,*6B
1489644458.26,24174,8.56,73234.3,-10.67,-23.89,-27.77,0,*61
1489644459.52,24175,8.56,73224.8,-10.67,-23.89,-27.61,0,*67
1489644460.77,24176,8.56,73230.3,-10.65,-23.89,-27.61,0,*66
1489644462.01,24177,8.56,73226.8,-10.65,-23.79,-27.61,0,*68
1489644463.26,24178,8.56,73200.3,-10.65,-23.79,-27.61,0,*67
1489644464.47,24179,8.56,73194.3,-10.65,-23.89,-27.71,0,*68
1489644465.71,24180,8.56,73188.3,-10.63,-24.05,-27.89,0,*6C
1489644466.96,24181,8.56,73174.8,-10.63,-24.05,-27.89,0,*6D
1489644468.22,24182,8.56,73158.8,-10.65,-24.15,-28.09,0,*6E
1489644469.49,24183,8.56,73204.8,-10.65,-24.11,-28.05,0,*67
1489644470.76,24184,8.56,73200.8,-10.65,-24.15,-28.05,0,*64
1489644472.0,24185,8.56,73218.3,-10.65,-24.11,-27.89,0,*6A
1489644473.27,24186,8.56,73210.8,-10.63,-24.11,-27.89,0,*6F
1489644474.51,24187,8.56,73206.0,-10.65,-24.11,-27.89,0,*68
1489644475.76,24188,8.56,73212.5,-10.65,-24.11,-27.89,0,*67
1489644477.02,24189,8.56,73218.3,-10.63,-23.95,-27.71,0,*6C
1489644478.29,24190,8.56,73230.0,-10.63,-23.89,-27.61,0,*68
1489644479.56,24191,8.56,73226.5,-10.63,-24.05,-27.61,0,*6A
1489644480.8,24192,8.56,73226.0,-10.63,-23.89,-27.71,0,*6B
1489644482.04,24193,8.56,73224.3,-10.63,-24.05,-27.89,0,*6E
1489644483.33,24194,8.56,73208.0,-10.59,-24.11,-27.99,0,*64
1489644484.63,24195,8.56,73172.5,-10.59,-24.11,-27.99,0,*65
1489644485.93,24196,8.56,73210.0,-10.63,-24.41,-28.25,0,*62
1489644487.21,24197,8.56,73192.5,-10.57,-24.21,-27.99,0,*6A
1489644488.49,24198,8.56,73204.3,-10.59,-24.25,-28.15,0,*64
1489644489.79,24199,8.56,73210.0,-10.59,-24.41,-28.25,0,*64
1489644491.02,24200,8.56,73218.8,-10.57,-24.31,-28.15,0,*6D
1489644492.32,24201,8.56,73218.3,-10.59,-24.25,-28.05,0,*66
1489644493.62,24202,8.56,73214.8,-10.59,-24.11,-27.99,0,*68
1489644494.92,24203,8.56,73220.3,-10.59,-24.21,-27.99,0,*6A
1489644496.14,24204,8.56,73218.0,-10.57,-24.05,-27.93,0,*6F
1489644497.44,24205,8.56,73216.3,-10.59,-24.21,-27.99,0,*6C
1489644498.73,24206,8.56,73226.0,-10.59,-24.11,-27.99,0,*6C
1489644499.95,24207,8.56,73206.0,-10.57,-24.05,-27.93,0,*6C
1489644501.23,24208,8.56,73218.0,-10.57,-24.21,-28.09,0,*69
1489644502.48,24209,8.56,73210.8,-10.57,-24.21,-27.93,0,*64